Location: Gu�tanj
(46.5431°N, 14.9692°E)
Time: 17:06:31
(UTC+00:00)

Meteor 1-11 Rocket - Pass Details

Date: 03 March 2021
Orbit: 831 x 916 km, 81.2° (Epoch: 14 April)

Event Time Altitude Azimuth Distance (km) Brightness Sun altitude
Rises 19:23:50 0° 201° (SSW) 3,466 6.9 -27.0°
Reaches altitude 10° 19:26:20 10° 205° (SSW) 2,518 6.2 -27.4°
Maximum altitude 19:31:58 59° 284° (WNW) 988 4.2 -28.3°
Drops below altitude 10° 19:37:32 10° 4° (N) 2,481 6.3 -29.2°
Sets 19:39:59 0° 9° (N) 3,411 7.0 -29.6°
